Location: Crescent
(42.8242°N, 73.7329°W)
Time: 06:48:01
(UTC+00:00)

Transit 4A - Pass Details

Date: 16 February 2026
Orbit: 864 x 977 km, 66.8° (Epoch: 9 March)

Event Time Altitude Azimuth Distance (km) Brightness Sun altitude
Rises 08:46:32 0° 202° (SSW) 3,438 - -34.2°
Reaches altitude 10° 08:48:59 10° 201° (SSW) 2,513 - -33.8°
Maximum altitude 08:54:46 73° 117° (ESE) 927 - -32.7°
Exits shadow 08:55:49 59° 58° (ENE) 1,025 8.2 -32.5°
Drops below altitude 10° 09:00:44 10° 34° (NE) 2,592 10.7 -31.7°
Sets 09:03:17 0° 33° (NNE) 3,555 11.5 -31.2°
